#timestamp,LO_Frequency,Hit,StdDev 
1599321615.5,286046995.4,P
1599321635.3,286046996.0,P
1599321655.2,286046995.4,Y
1599321675.9,286046998.7,P
1599321695.7,286047000.5,N
1599321715.6,286047001.0,N
1599321735.4,286047002.7,N
1599321755.2,286047001.7,N
1599321775.1,286047002.8,N
1599321776.0,286047002.8,N
1599321795.8,286047000.6,N
1599321815.7,286046998.7,N
1599321835.5,286046998.6,N
1599321855.3,286046996.6,N
1599321875.2,286046996.8,N
1599321895.0,286046999.5,N
1599321895.9,286046999.5,N
1599321915.7,286046998.9,N
1599321935.6,286046996.9,N
1599321955.4,286046997.3,N
1599321975.3,286046997.1,N
1599321995.1,286046997.8,N
1599321996.0,286046997.8,N
1599322015.8,286046997.4,N
1599322035.7,286046995.3,N
1599322055.5,286046997.4,N
1599322075.3,286046994.9,N
1599322095.2,286046995.2,N
1599322115.0,286046997.6,N
1599322115.9,286046997.6,N
1599322135.8,286046995.7,N
1599322155.6,286046996.1,N
1599322175.4,286046997.7,N
1599322195.3,286046996.7,N
1599322215.1,286046999.0,N
1599322235.8,286046998.4,N
1599322255.7,286046997.1,N
1599322275.5,286046999.2,N
1599322295.4,286046999.1,N
1599322315.2,286046996.8,N
1599322335.0,286046996.8,N
1599322335.9,286046996.8,N
1599322355.8,286046998.2,N
1599322375.6,286046999.6,N
1599322395.5,286046998.0,N
1599322415.3,286046998.0,N
1599322435.1,286046997.8,N
1599322455.9,286046998.0,N
1599322475.7,286046995.1,Y
1599322495.5,286047001.2,P
1599322515.4,286046998.2,N
1599322535.2,286047000.9,N
1599322555.1,286046998.5,N
1599322556.0,286046998.5,N
1599322575.8,286046999.8,N
1599322595.6,286047000.7,N
1599322615.5,286046998.2,N
1599322635.3,286046999.0,N
1599322655.1,286046999.3,N
1599322675.9,286046997.7,N
1599322695.7,286046999.1,N
1599322715.6,286046996.6,N
1599322735.4,286046999.3,N
1599322755.3,286046999.5,N
1599322775.1,286046998.4,N
1599322776.0,286046998.4,N
1599322795.8,286046998.2,N
1599322815.7,286046998.5,N
1599322835.5,286047000.9,N
1599322855.3,286046998.1,N
1599322875.2,286046999.1,N
1599322895.0,286046999.3,N
1599322895.9,286046999.3,N
1599322915.8,286047000.8,N
1599322935.6,286047001.2,N
1599322955.4,286047000.8,N
1599322975.3,286047001.1,N
1599322995.1,286047000.0,N
1599323015.9,286047002.6,N
1599323035.7,286047001.6,N
1599323055.5,286047002.2,N
1599323075.4,286047000.8,N
1599323095.2,286047000.4,N
1599323115.1,286047001.0,N
1599323116.0,286047001.0,N
1599323135.8,286046999.7,N
1599323155.6,286047002.7,N
1599323175.5,286047002.0,N
1599323195.3,286047002.3,N
1599323215.2,286047000.0,N
1599323235.9,286047002.5,N
1599323255.7,286047000.0,N
1599323275.6,286047000.6,N
1599323295.4,286047000.3,N
1599323315.3,286046998.8,N
1599323335.1,286046998.3,N
1599323355.8,286046998.3,N
1599323375.7,286046998.9,N
1599323395.5,286046998.5,N
1599323415.4,286047000.3,N
1599323435.2,286046999.9,N
1599323455.0,286046998.1,N
1599323455.9,286046998.1,N
1599323475.8,286046998.8,N
1599323495.6,286046998.2,N
1599323515.4,286047000.9,N
1599323535.3,286047002.5,N
1599323555.1,286047000.6,N
1599323575.9,286047000.9,N
1599323595.7,286046998.8,N
1599323615.5,286046999.1,N
1599323635.4,286046997.7,N
1599323655.2,286046995.4,Y
1599323675.0,286046995.8,P
1599323675.9,286046995.8,N
1599323695.8,286046997.1,N
1599323715.6,286046999.4,N
1599323735.5,286046996.5,N
1599323755.3,286046997.0,N
1599323775.1,286046997.0,N
1599323795.9,286046996.9,N
1599323815.7,286046997.3,N
1599323835.5,286046999.5,N
1599323855.4,286046997.7,N
1599323875.2,286046995.1,Y
1599323895.1,286046998.3,P
1599323896.0,286046998.3,P
1599323915.8,286046998.1,P
1599323935.7,286046998.3,Y
1599323955.5,286047000.1,P
1599323975.3,286047000.3,N
1599323995.2,286047002.5,N
1599324015.0,286047001.7,N
1599324015.9,286047001.7,N
1599324035.7,286047004.1,N
1599324055.6,286047003.3,N
1599324075.4,286047005.9,Y
1599324095.3,286047002.0,P
1599324115.1,286047002.2,P
1599324116.0,286047002.2,P
1599324135.8,286046998.1,Y
1599324155.7,286046999.5,P
1599324175.5,286046999.3,N
1599324195.4,286046998.9,N
1599324215.2,286047000.9,N
1599324235.0,286047000.5,N
1599324235.9,286047000.5,N
1599324255.8,286047000.0,N
1599324275.6,286046999.3,N
1599324295.5,286046997.3,N
1599324315.3,286046997.3,N
1599324335.1,286046997.6,N
1599324355.9,286046997.4,N
1599324375.7,286046997.1,N
1599324395.5,286046997.2,N
1599324415.4,286046998.0,N
1599324435.2,286046997.6,N
1599324455.1,286046997.9,N
1599324456.0,286046997.9,N
1599324475.8,286046998.0,N
1599324495.6,286046995.0,Y
1599324515.5,286046997.0,P
1599324535.3,286046995.1,P
1599324555.1,286046995.6,P
1599324575.9,286046996.0,N
1599324595.7,286046993.3,Y
1599324615.6,286046999.4,P
1599324635.4,286047001.0,N
1599324655.2,286047002.7,N
1599324675.1,286047002.7,N
1599324676.0,286047002.7,N
1599324695.8,286047001.8,N
1599324715.6,286047002.0,N
1599324735.5,286047004.1,N
1599324755.3,286047001.8,N
1599324775.2,286047004.0,N
1599324795.9,286047002.1,N
1599324815.7,286047002.3,N
1599324835.6,286047000.6,N
1599324855.4,286046998.8,N
1599324875.2,286046998.9,N
1599324895.1,286046998.2,N
1599324896.0,286046998.2,N
1599324915.8,286046999.0,N
1599324935.7,286046999.1,N
1599324955.5,286046999.1,N
1599324975.3,286046998.9,N
1599324995.2,286046998.5,N
1599325015.0,286046998.7,N
1599325015.9,286046998.7,N
1599325035.7,286046999.7,N
1599325055.6,286047000.0,N
1599325075.4,286047002.5,N
1599325095.3,286047003.3,N
1599325115.1,286047004.8,N
1599325116.0,286047004.8,N
1599325135.8,286047007.0,Y
1599325155.7,286047005.8,P
1599325175.5,286047005.4,N
1599325195.4,286047005.5,N
